Location: Владивосток
(43.1151°N, 131.8856°E)
Time: 22:41:35
(UTC+10:00)

Oscar 11 - Visible Passes

Search period start: 24 April 2024 00:00
Search period end: 04 May 2024 00:00
Orbit: 604 x 613 km, 97.7° (Epoch: 23 April)

Date Brightness Start Highest point End Pass type
(mag) Time Alt. Az. Time Alt. Az. Time Alt. Az.
24 Apr 7.2 05:02:48 10° NNE 05:07:07 74° ESE 05:11:22 10° S visible
25 Apr 7.0 05:16:41 10° N 05:21:00 78° WNW 05:25:15 10° SSW visible
26 Apr 9.8 03:56:23 10° ENE 03:58:36 14° E 04:00:49 10° ESE visible
26 Apr 7.2 05:30:39 10° N 05:34:51 54° WNW 05:39:00 10° SSW visible
27 Apr 9.5 04:09:30 10° NE 04:12:37 19° E 04:15:42 10° SE visible
28 Apr 9.0 04:22:55 10° NE 04:26:35 27° E 04:30:12 10° SSE visible
29 Apr 8.4 04:36:31 10° NNE 04:40:32 37° E 04:44:29 10° SSE visible
30 Apr 7.8 04:50:12 10° NNE 04:54:25 53° E 04:58:35 10° S visible
01 May 7.2 05:03:59 10° NNE 05:08:17 77° ESE 05:12:32 10° S visible
02 May 7.0 05:17:49 10° N 05:22:07 75° WNW 05:26:21 10° SSW visible
03 May 9.7 03:57:21 10° ENE 03:59:41 14° E 04:02:00 10° ESE visible
03 May 7.3 05:31:44 10° N 05:35:54 52° WNW 05:40:03 10° SSW visible
